Vertical_Velocity
-0 1 0 -1 -2 -2 1 -2 -2 -1 -2 -2 -1 -4 -4 -3 -2 -5 -1 2 -4 -1 -2 0 -2 1 1 2 1 6 -4 -2 -8 -2 -11 -8 -2 27 4 8 6 5 -12 4 0
-1 -1 -2 -1 1 1 -0 -0 -2 -0 -2 -5 -4 -3 -3 -4 -5 -2 -3 -0 -0 -1 2 -1 0 0 -2 -1 -2 3 -6 -7 -2 4 -3 -25 4 20 3 20 8 6 -3 0 -1
0 -1 1 0 -0 -0 -1 -2 -3 -4 -1 -4 -2 -1 -4 -5 -1 -4 -1 -1 -0 -1 -2 -1 1 0 -3 1 2 4 -28 14 -0 -5 5 -12 19 8 0 -8 18 1 -11 4 -1
-1 -2 1 -0 -2 -0 -3 -3 -2 -0 -3 -2 -1 -3 -5 -2 -6 -3 -3 -1 -2 -2 -0 -0 1 1 -2 -2 5 -8 -9 4 -1 -3 0 2 15 -5 8 -1 4 9 -8 6 -0
0 0 1 0 -2 -1 -0 -1 -2 -3 -2 -2 -3 -4 -1 -2 -3 -1 -1 -2 -1 -1 -1 -1 -1 0 -2 -0 2 -8 6 19 -1 -7 -9 0 -7 -9 -8 6 11 17 -7 5 -4
-0 -0 -0 -1 -0 0 -2 -2 -3 -2 -2 -3 -4 -4 -4 -2 -3 1 -4 -1 -4 -3 1 0 2 3 -6 -1 -4 1 -0 -3 -2 -10 -9 4 -16 12 -3 8 17 0 0 0 -4
-0 -1 0 -1 -2 -3 -2 -1 -1 -2 -2 -3 -4 -4 -0 -1 -3 -2 1 0 -1 -2 -1 4 4 1 1 2 2 1 -7 5 -5 -12 -22 13 -26 -5 8 -1 8 8 3 1 -3
-1 -0 -2 -1 -2 -0 -1 -1 -1 -2 -2 -3 -4 -4 -0 -3 -3 -2 -4 -3 -2 -3 -2 6 4 0 -1 7 2 1 4 -2 4 9 -18 20 -38 5 14 6 1 8 2 -1 -4
-1 -2 -1 -2 -1 -1 -2 -1 -1 -2 -3 -4 -2 -1 -3 -2 -4 -1 -3 -4 -2 0 -6 -2 -2 7 8 5 4 0 -1 -6 -2 -5 10 17 -24 -3 19 4 6 5 4 2 -1
-1 -1 -1 -1 -0 -2 -1 -0 -2 -2 -3 -5 -2 -5 -3 -1 -4 -2 -2 -1 -3 -2 -4 -4 2 0 1 -0 -10 -1 -3 -3 -11 -9 13 19 -31 -17 25 -6 9 -4 3 1 1
-1 -1 -1 -1 -1 -1 -1 -0 -3 -3 -2 -1 -4 -1 -2 0 -4 -1 0 -2 -5 -6 1 5 1 -14 -3 -1 11 4 2 0 6 1 -0 -0 -18 -24 20 3 -6 -1 1 0 0
-2 -1 -0 -3 -1 -0 -1 -1 -1 -0 -1 -4 -3 -2 -2 -2 -3 -1 -3 1 -1 0 1 1 -13 2 -0 -0 -0 4 3 -11 -4 0 2 5 -26 -7 10 -2 -3 6 -1 2 -1
-2 -1 -0 -3 -2 -0 -1 -1 -3 -3 -5 -0 -2 -1 -1 -3 -3 -1 -2 -1 -3 1 1 -2 -5 -4 -3 -1 9 1 -3 1 -4 3 -0 0 -24 -2 -11 6 6 6 10 -2 -5
-1 -0 -0 -2 -1 1 -1 -2 -3 -1 -1 -3 -2 -4 -2 -2 -1 -3 -4 -2 -6 -3 -1 1 3 2 5 -12 18 0 10 2 -1 13 -4 4 -8 -12 -5 -2 2 10 -5 -0 -3
-1 -1 -3 -0 -1 -2 -1 -3 -2 -1 -6 -3 -6 0 -1 -4 -2 -4 -4 -3 0 2 6 -6 -1 2 4 -4 13 -22 13 7 19 8 8 14 6 -29 10 7 -12 -1 2 2 0
-0 -2 -1 1 -2 -2 -1 -2 -1 -3 -8 -1 -1 1 -1 -2 -0 -5 -5 -3 2 -3 -1 -3 4 -0 -0 2 2 7 8 10 17 7 6 -10 -3 -10 -16 -32 14 10 3 1 -4
-2 -2 -1 0 -0 -2 -0 -2 -2 -2 -2 -0 -5 -3 2 -1 -1 -4 2 -0 1 -1 -1 1 0 2 -1 1 -2 2 3 -0 2 2 -7 -4 17 -5 -3 -6 1 -14 -10 2 0
-1 -2 -2 -1 -1 -1 -0 -5 -0 -3 -2 -1 -4 -1 -2 -1 -1 -2 -1 -4 -3 2 -1 -0 -8 -4 2 3 4 1 -1 3 1 -2 -4 8 -4 -33 0 4 11 -4 4 5 0
0 0 -3 1 -2 1 0 -4 -3 -2 -0 -1 -1 -3 -1 1 2 -4 3 3 2 5 -2 -2 -3 -3 -0 1 2 6 -3 3 3 1 0 1 0 9 -8 -0 4 11 -4 3 4
-1 1 -3 -2 -2 2 1 -3 -2 -0 1 -0 -1 2 0 3 -0 4 2 0 1 -1 1 3 -5 1 4 -2 4 6 4 -5 -3 -1 -0 -4 0 2 -17 -5 4 -0 1 3 5
2 -1 2 -2 -0 -0 -0 -2 -3 -0 0 0 1 -3 0 0 1 0 -0 1 -0 0 1 2 2 -8 -3 4 4 3 -2 -16 1 -3 2 0 -5 2 -11 1 -6 2 5 3 -0
0 -0 1 0 -1 -2 0 -2 -2 0 0 1 -1 1 -1 -1 -2 1 1 2 1 0 -0 1 0 -2 0 2 3 2 0 2 -2 -5 -2 -0 -7 -2 4 2 9 -2 3 6 9
1 -0 2 1 -2 -2 1 -1 -4 1 -0 -0 0 0 3 -1 -4 3 -1 0 1 0 -2 1 4 -3 -10 -1 2 1 9 5 1 -8 3 -2 -8 -2 6 3 3 7 2 4 4
1 -1 0 1 0 -2 0 -2 -3 0 -3 -1 1 1 1 -0 5 -5 -1 1 0 -0 3 -2 4 0 -3 -4 -4 -3 3 9 3 -2 -7 -1 7 0 4 2 -0 2 8 4 4
-1 -1 -2 1 -0 -0 -3 1 -1 -1 -1 1 -1 1 1 -4 -1 1 -2 2 2 1 0 4 -4 4 1 -3 2 -0 -1 5 6 1 -11 3 2 3 -4 3 4 5 3 3 3
-0 -1 -1 4 2 1 -3 3 -1 0 1 -2 -1 2 1 -2 1 -7 2 5 -0 1 1 -5 -5 -3 -7 -0 2 -6 3 -1 1 -0 -4 4 4 5 -2 0 0 2 3 4 4
-0 -1 4 0 4 -2 -1 2 -1 -1 -0 -1 -1 -1 1 1 0 1 -0 1 1 0 2 1 0 -1 -5 0 -2 -4 -6 1 -3 1 3 1 0 1 1 0 2 2 2 5 4
Height
3143 3143 3143 3142 3141 3140 3137 3134 3132 3130 3127 3125 3122 3119 3116 3114 3112 3109 3108 3107 3105 3103 3103 3104 3103 3105 3105 3106 3109 3110 3109 3103 3106 3111 3112 3126 3125 3131 3133 3137 3137 3132 3135 3141 3143
3143 3143 3142 3140 3138 3136 3133 3131 3129 3127 3124 3120 3117 3114 3110 3108 3105 3103 3101 3099 3098 3097 3098 3098 3098 3098 3098 3099 3101 3102 3100 3098 3104 3108 3110 3121 3119 3120 3124 3128 3129 3128 3131 3135 3139
3142 3140 3139 3137 3135 3133 3130 3129 3126 3123 3119 3116 3112 3109 3106 3103 3101 3098 3097 3096 3095 3094 3093 3093 3093 3092 3092 3093 3095 3095 3092 3098 3099 3104 3108 3113 3113 3114 3116 3118 3122 3125 3130 3131 3135
3139 3138 3136 3135 3133 3130 3128 3125 3121 3118 3115 3111 3108 3105 3101 3099 3101 3095 3094 3092 3090 3089 3088 3087 3088 3087 3088 3088 3090 3090 3090 3091 3094 3099 3102 3103 3103 3102 3108 3113 3114 3119 3125 3126 3131
3137 3136 3135 3132 3130 3127 3124 3122 3119 3115 3111 3107 3103 3100 3098 3096 3094 3091 3089 3088 3086 3085 3084 3083 3082 3082 3082 3083 3085 3083 3084 3086 3089 3093 3095 3094 3093 3097 3099 3107 3107 3112 3117 3121 3126
3135 3134 3132 3130 3127 3125 3122 3119 3115 3110 3107 3103 3099 3097 3094 3092 3088 3086 3084 3083 3082 3080 3079 3078 3077 3078 3076 3077 3078 3079 3080 3080 3082 3086 3088 3089 3089 3093 3096 3100 3101 3106 3111 3116 3121
3132 3131 3129 3127 3125 3122 3119 3115 3111 3107 3103 3099 3095 3092 3091 3089 3084 3083 3081 3079 3077 3075 3073 3074 3073 3073 3073 3073 3073 3075 3076 3076 3077 3081 3082 3086 3083 3084 3092 3096 3095 3102 3106 3110 3115
3130 3128 3126 3124 3122 3119 3115 3111 3107 3103 3099 3095 3092 3089 3087 3084 3081 3078 3076 3073 3071 3069 3065 3066 3065 3066 3067 3069 3068 3070 3071 3070 3069 3075 3079 3080 3075 3081 3089 3091 3092 3097 3101 3105 3109
3127 3126 3124 3121 3119 3116 3112 3108 3104 3100 3096 3093 3090 3087 3084 3082 3078 3075 3072 3070 3066 3062 3059 3057 3058 3061 3063 3063 3066 3064 3063 3064 3067 3071 3074 3074 3073 3077 3083 3087 3090 3093 3097 3101 3104
3125 3122 3120 3118 3116 3113 3109 3105 3101 3097 3094 3090 3088 3087 3083 3080 3075 3073 3071 3068 3062 3059 3056 3056 3056 3057 3058 3059 3058 3059 3061 3060 3059 3065 3066 3068 3069 3070 3077 3081 3085 3089 3093 3096 3099
3123 3120 3117 3115 3112 3110 3107 3103 3101 3097 3092 3089 3086 3084 3081 3078 3074 3072 3069 3065 3060 3058 3056 3055 3055 3053 3055 3056 3057 3057 3056 3055 3058 3061 3062 3062 3065 3064 3069 3075 3079 3083 3087 3091 3095
3120 3118 3116 3113 3109 3107 3104 3099 3096 3094 3090 3086 3084 3082 3078 3075 3072 3071 3069 3066 3061 3058 3056 3056 3052 3054 3053 3053 3054 3053 3053 3050 3054 3057 3059 3055 3057 3056 3063 3067 3074 3079 3082 3087 3091
3117 3115 3113 3110 3107 3104 3101 3097 3093 3088 3088 3086 3083 3080 3077 3074 3070 3069 3067 3063 3059 3057 3054 3052 3050 3049 3049 3048 3048 3046 3046 3047 3049 3051 3051 3052 3048 3049 3056 3062 3069 3073 3078 3084 3086
3113 3112 3110 3108 3107 3102 3099 3095 3091 3086 3085 3086 3083 3079 3075 3072 3070 3067 3065 3064 3059 3056 3053 3050 3046 3044 3042 3041 3042 3040 3040 3041 3041 3044 3041 3045 3042 3042 3051 3055 3062 3067 3071 3075 3080
3110 3108 3107 3104 3103 3100 3098 3093 3089 3086 3087 3085 3081 3079 3073 3072 3070 3067 3064 3061 3059 3055 3054 3049 3042 3039 3037 3036 3035 3031 3032 3029 3028 3035 3040 3036 3044 3039 3046 3051 3054 3059 3063 3070 3077
3108 3106 3104 3102 3100 3098 3094 3092 3089 3088 3084 3083 3081 3078 3075 3070 3069 3066 3064 3061 3058 3054 3051 3046 3042 3038 3035 3034 3033 3031 3030 3026 3024 3031 3032 3029 3033 3033 3038 3043 3050 3056 3060 3066 3072
3104 3103 3100 3098 3098 3095 3092 3091 3090 3085 3086 3083 3080 3077 3074 3070 3068 3066 3065 3062 3059 3055 3049 3045 3042 3038 3035 3034 3033 3033 3032 3030 3029 3034 3032 3030 3036 3025 3032 3042 3048 3051 3057 3062 3069
3099 3100 3098 3096 3094 3092 3090 3090 3087 3084 3082 3080 3078 3076 3073 3070 3069 3066 3064 3061 3058 3056 3051 3047 3043 3040 3039 3037 3035 3034 3035 3033 3030 3031 3029 3028 3028 3027 3032 3039 3044 3049 3055 3060 3066
3095 3095 3094 3093 3091 3090 3089 3088 3085 3083 3081 3079 3077 3074 3072 3069 3068 3065 3063 3061 3059 3057 3055 3050 3045 3042 3040 3038 3039 3037 3036 3035 3031 3027 3026 3025 3025 3025 3027 3031 3039 3046 3051 3056 3063
3090 3090 3090 3089 3089 3087 3086 3086 3083 3081 3079 3077 3075 3075 3072 3069 3067 3064 3062 3060 3058 3056 3053 3051 3047 3043 3042 3040 3039 3038 3037 3037 3034 3032 3028 3026 3022 3021 3023 3026 3034 3041 3047 3054 3061
3085 3085 3086 3086 3086 3084 3082 3081 3080 3078 3077 3076 3074 3072 3071 3068 3066 3063 3062 3059 3057 3055 3053 3051 3049 3045 3042 3040 3038 3038 3036 3036 3037 3034 3033 3029 3022 3022 3025 3026 3031 3037 3045 3052 3059
3080 3081 3081 3081 3083 3080 3079 3078 3078 3076 3074 3073 3071 3069 3068 3067 3063 3062 3060 3058 3056 3053 3052 3050 3048 3044 3042 3040 3038 3037 3036 3037 3037 3038 3031 3032 3023 3022 3023 3028 3032 3038 3044 3051 3058
3074 3075 3076 3076 3076 3076 3076 3075 3074 3072 3071 3070 3069 3067 3066 3065 3064 3060 3058 3056 3053 3052 3051 3049 3047 3044 3040 3040 3038 3036 3036 3037 3037 3035 3034 3031 3026 3022 3024 3027 3032 3038 3042 3048 3055
3069 3070 3071 3070 3071 3072 3072 3071 3070 3070 3068 3067 3066 3065 3064 3062 3062 3057 3056 3054 3052 3049 3049 3049 3047 3046 3045 3042 3040 3037 3036 3035 3034 3036 3035 3033 3029 3024 3025 3028 3033 3037 3042 3047 3053
3062 3064 3064 3065 3066 3068 3068 3068 3068 3067 3066 3065 3063 3062 3061 3059 3058 3056 3054 3053 3051 3048 3048 3047 3045 3044 3041 3038 3037 3035 3035 3034 3034 3035 3037 3031 3028 3026 3026 3029 3033 3037 3041 3045 3051
3055 3058 3060 3061 3061 3064 3064 3064 3064 3064 3063 3062 3061 3060 3058 3056 3056 3052 3051 3050 3049 3047 3046 3045 3043 3041 3037 3036 3034 3032 3032 3033 3033 3033 3034 3032 3030 3028 3026 3028 3032 3036 3040 3045 3049
3048 3051 3054 3055 3056 3058 3060 3060 3060 3061 3060 3059 3058 3056 3055 3054 3051 3050 3047 3046 3045 3044 3044 3044 3042 3040 3036 3035 3032 3030 3025 3028 3030 3032 3032 3031 3031 3031 3031 3030 3032 3036 3040 3044 3049